Yellow Mule RAWS (NWS)

Aggregated by Synoptic Data
Date/Time Wind Direction Wind Speed knots Wind Gust knots RH % Accumulated Precip Inches Air Temp Fahrenheit
2024-02-23 01:04 SSW 15 24 83 0.28 17
2024-02-23 00:04 SSW 17 27 84 0.28 17
2024-02-22 23:04 SSW 14 18 82 0.28 17
2024-02-22 22:04 SW 11 16 79 0.28 17
2024-02-22 21:04 SW 10 16 76 0.28 18
2024-02-22 20:04 SW 11 19 76 0.28 18
2024-02-22 19:04 SW 14 23 78 0.28 18
2024-02-22 18:04 SW 14 19 80 0.28 19
2024-02-22 17:04 SW 13 22 72 0.28 21
2024-02-22 16:04 SSW 15 23 68 0.28 21
2024-02-22 15:04 SSW 11 22 80 0.28 21
2024-02-22 14:04 SSW 13 20 73 0.28 23
2024-02-22 13:04 SSW 15 20 72 0.28 23
2024-02-22 12:04 SSW 12 17 79 0.28 23
2024-02-22 11:04 SW 7 12 78 0.28 23
2024-02-22 10:04 SW 7 10 90 0.28 20
2024-02-22 09:04 SSW 7 10 92 0.28 19
2024-02-22 08:04 SW 8 12 93 0.28 18
2024-02-22 07:04 SSW 8 12 93 0.28 18
2024-02-22 06:04 SW 11 15 93 0.28 17
2024-02-22 05:04 SSW 5 12 94 0.28 18
2024-02-22 04:04 SSW 10 15 94 0.28 19
2024-02-22 03:04 SSW 9 14 94 0.28 18
2024-02-22 02:04 SSW 10 17 94 0.28 18
2024-02-22 01:04 SSW 8 11 92 0.28 18
2024-02-22 00:04 SW 9 12 83 0.28 19
2024-02-21 23:04 SW 7 10 80 0.28 20
2024-02-21 22:04 SW 10 14 80 0.28 19
2024-02-21 21:04 SW 9 11 78 0.28 19
2024-02-21 20:04 SW 6 10 76 0.28 20
2024-02-21 19:04 SW 7 13 73 0.28 21
2024-02-21 18:04 SW 9 13 66 0.28 21
2024-02-21 17:04 SW 7 12 56 0.28 25
2024-02-21 16:04 WSW 10 13 56 0.28 25
2024-02-21 15:04 SW 8 12 54 0.28 28
2024-02-21 14:04 WSW 7 11 51 0.28 30
2024-02-21 13:04 WSW 7 10 53 0.28 29
2024-02-21 12:04 WNW 7 10 54 0.28 29
2024-02-21 11:04 W 7 11 57 0.28 28
2024-02-21 10:04 WSW 9 12 61 0.28 25
2024-02-21 09:04 SSW 3 7 65 0.28 23
2024-02-21 08:04 S 3 6 81 0.28 17
2024-02-21 07:04 SSW 5 6 84 0.28 16
2024-02-21 06:04 S 3 6 93 0.28 16
2024-02-21 05:04 SSE 4 9 97 0.28 17
2024-02-21 04:04 SSE 5 6 96 0.28 17
2024-02-21 03:04 S 4 6 98 0.28 17
2024-02-21 02:04 SSE 3 5 96 0.28 17
2024-02-21 01:04 SSE 2 6 83 0.28 17